Yatton Keynell, United Kingdom

4:24 PM BST on April 19, 2019 (GMT +0100)
Yatton Keynell

Weather History for 03740 - July, 1998

Change the Weather History Date:

Friday, July 3, 1998

  Actual Average Record
Temperature  
Mean Temperature 58 °F -  
Max Temperature 68 °F 69 °F - ()
Min Temperature 48 °F 53 °F - ()
Degree Days  
Heating Degree Days 7    
Growing Degree Days 8 (Base 50)    
Moisture  
Dew Point 50 °F    
Average Humidity 78    
Maximum Humidity 94    
Minimum Humidity 56    
Precipitation  
Precipitation 0.00 in 0.07 in - ()
Sea Level Pressure  
Sea Level Pressure 30.19 in    
Wind  
Wind Speed 2 mph ()    
Max Wind Speed 9 mph    
Max Gust Speed -    
Visibility 5.2 miles    
Events      
T = Trace of Precipitation, MM = Missing Value Source: Averaged Metar Reports

Daily Weather History Graph

Daily Weather History Graph

Search for Another Location

Airport or City:

Astronomy

Jul. 03, 1998 Rise Set
Actual Time 4:56 AM BST 9:27 PM BST
Civil Twilight 4:09 AM BST 10:14 PM BST
Nautical Twilight 2:57 AM BST 11:25 PM BST
Astronomical Twilight 1:44 AM BST 12:39 AM BST
Moon 3:04 PM BST (7/3) 1:31 AM BST (7/3)
Length of Visible Light 18h 05m
Length of Day
16h 31m
Waxing Gibbous, 66% of the Moon is Illuminated
Jul 3
Waxing Gibbous
Jul 9
Full
Jul 16
Last Quarter
Jul 23
New
Jul 31
First Quarter

Hourly Weather History & Observations

Time (BST) Temp. Dew Point Humidity Pressure Visibility Wind Dir Wind Speed Gust Speed Precip Events Conditions
12:50 AM 50.0 °F 46.4 °F 87% 30.18 in 4.3 mi NNE 3.5 mph - N/A   Haze
1:50 AM 48.2 °F 44.6 °F 87% 30.15 in 3.7 mi North 2.3 mph - N/A   Haze
2:50 AM 48.2 °F 44.6 °F 87% 30.15 in 3.1 mi North 3.5 mph - N/A   Haze
3:50 AM 48.2 °F 46.4 °F 93% 30.15 in 3.7 mi Calm Calm - N/A   Haze
4:50 AM 48.2 °F 46.4 °F 93% 30.18 in 3.7 mi Calm Calm - N/A   Haze
5:50 AM 48.2 °F 46.4 °F 93% 30.18 in 2.8 mi Calm Calm - N/A   Haze
6:50 AM 50.0 °F 48.2 °F 94% 30.18 in 2.8 mi Calm Calm - N/A   Haze
7:50 AM 51.8 °F 48.2 °F 88% 30.18 in 3.7 mi Calm Calm - N/A   Haze
8:50 AM 53.6 °F 50.0 °F 88% 30.21 in 5.0 mi Calm Calm - N/A   Haze
9:50 AM 55.4 °F 48.2 °F 77% 30.21 in 6.2 mi Calm Calm - N/A   Mostly Cloudy
10:50 AM 57.2 °F 50.0 °F 77% 30.21 in 6.2 mi Calm Calm - N/A   Mostly Cloudy
11:50 AM 60.8 °F 51.8 °F 72% 30.21 in 6.2 mi West 1.2 mph - N/A   Mostly Cloudy
12:50 PM 62.6 °F 51.8 °F 68% 30.21 in 6.2 mi West 5.8 mph - N/A   Mostly Cloudy
1:50 PM 62.6 °F 53.6 °F 72% 30.21 in 5.6 mi WNW 4.6 mph - N/A   Haze
2:50 PM 64.4 °F 53.6 °F 68% 30.21 in 6.2 mi NNW 2.3 mph - N/A   Overcast
3:50 PM 66.2 °F 51.8 °F 60% 30.21 in 6.2 mi NW 3.5 mph - N/A   Scattered Clouds
4:50 PM 68.0 °F 53.6 °F 60% 30.18 in 6.2 mi NW 5.8 mph - N/A   Scattered Clouds
5:50 PM 68.0 °F 51.8 °F 56% 30.18 in 6.2 mi West 4.6 mph - N/A   Partly Cloudy
6:50 PM 68.0 °F 53.6 °F 60% 30.18 in 6.2 mi WNW 5.8 mph - N/A   Partly Cloudy
7:50 PM 64.4 °F 53.6 °F 68% 30.18 in 6.2 mi West 9.2 mph - N/A   Partly Cloudy
8:50 PM 60.8 °F 53.6 °F 77% 30.21 in - WSW 8.1 mph - N/A   Clear
9:50 PM 59.0 °F 53.6 °F 82% 30.21 in 6.2 mi WSW 6.9 mph - N/A   Mostly Cloudy
10:50 PM 59.0 °F 53.6 °F 82% 30.24 in 6.2 mi NNW 5.8 mph - N/A   Partly Cloudy
11:50 PM 57.2 °F 50.0 °F 77% 30.24 in 6.2 mi North 6.9 mph - N/A   Partly Cloudy